Wind_Gust
13 12 14 14 13 12 13 13 10 11 10 9 11 8 10 7 7 10 10 10 9 10 10 10 11 12 13 14 14 15 15 15 15 14 15 16 15 15 17 14 12 12
13 14 14 13 12 10 10 10 11 12 11 10 10 10 8 9 8 9 10 11 11 10 9 10 11 12 13 14 13 15 14 15 15 12 16 15 13 15 14 11 11 10
14 14 15 14 14 12 12 11 11 12 13 11 10 10 10 8 10 9 10 10 11 10 10 10 11 11 12 13 13 14 15 15 15 12 14 13 13 13 10 10 10 10
13 14 14 14 14 14 13 14 12 12 12 13 10 9 10 9 10 11 10 10 11 10 9 10 11 11 12 13 13 14 14 14 13 13 13 11 10 10 10 10 10 9
15 14 14 14 13 14 13 14 14 12 13 13 10 9 11 10 11 11 10 9 9 10 10 11 10 11 12 12 13 14 13 13 11 12 12 11 8 9 8 9 9 10
11 13 14 15 15 16 15 14 13 14 14 12 10 10 10 9 10 10 9 10 9 10 11 10 11 10 11 12 13 12 12 13 10 12 11 10 9 8 8 8 8 9
14 13 13 13 13 13 15 13 13 13 12 12 10 10 10 11 10 9 8 9 9 10 10 11 11 10 9 11 12 11 11 11 10 11 11 8 9 8 7 7 8 8
13 12 13 13 14 14 15 14 14 14 13 11 12 8 9 11 10 8 8 9 10 10 10 10 9 9 9 11 12 12 10 9 11 10 9 8 8 8 7 6 6 8
14 13 14 14 16 14 14 14 14 12 11 14 12 10 8 9 9 9 9 9 10 10 10 10 9 9 8 11 11 11 11 9 9 10 9 9 8 8 7 6 7 7
15 14 15 15 16 15 16 13 13 12 11 13 12 11 12 8 8 9 9 9 10 9 10 10 9 9 9 9 11 11 11 10 8 8 8 8 9 8 7 6 6 6
15 15 16 16 16 15 16 14 13 13 11 13 13 11 9 10 9 7 9 9 10 10 10 10 9 9 10 8 7 8 10 10 9 8 8 8 7 7 8 7 5 5
15 14 16 17 17 17 16 15 14 13 13 10 11 13 10 9 10 7 9 9 9 9 9 9 8 8 9 9 9 8 8 8 8 7 7 7 6 6 7 6 6 5
16 16 17 17 17 17 16 15 15 14 14 13 10 11 12 11 9 10 7 9 8 8 9 9 9 8 9 8 8 8 9 9 8 7 6 5 5 6 6 6 5 5
16 15 16 17 16 17 17 16 15 14 13 12 11 12 11 10 11 11 8 8 8 8 7 7 8 9 7 8 8 8 9 8 8 8 6 6 7 6 5 6 6 5
14 14 15 18 18 18 18 16 15 15 13 12 11 11 10 9 9 10 11 10 8 8 8 7 10 8 7 8 10 7 8 9 7 6 5 6 6 6 4 4 6 6
17 15 17 18 19 19 18 17 16 15 14 13 12 11 10 9 8 8 9 10 10 8 8 9 8 6 7 7 8 10 9 8 7 7 7 7 6 5 3 4 7 7
17 17 18 19 18 19 18 18 16 16 15 13 12 11 11 9 9 10 9 8 9 9 9 9 8 6 7 9 10 10 10 9 9 8 7 8 6 6 6 5 6 7
18 18 18 18 18 19 18 17 17 17 16 14 13 12 9 8 9 9 9 8 8 8 9 8 7 7 9 11 12 11 9 10 9 9 8 7 6 7 7 7 7 6
18 19 19 19 18 18 17 17 17 16 16 14 13 11 10 10 9 9 8 7 9 10 9 7 6 7 9 11 12 11 10 9 8 8 8 6 5 6 7 7 5 5
19 19 19 19 18 18 18 17 16 16 14 13 12 11 11 9 8 9 7 7 9 10 9 7 7 7 9 10 11 11 10 8 8 8 8 7 6 5 5 4 5 4
20 20 20 18 18 18 18 17 16 15 14 14 14 14 13 12 11 10 7 8 7 9 9 8 6 6 8 9 10 10 10 8 9 8 8 8 7 7 7 7 5 4
21 20 20 19 19 18 18 17 16 17 16 12 11 10 8 9 6 7 9 8 7 8 10 8 4 6 7 8 9 9 9 8 9 9 8 7 7 6 6 6 5 4
20 21 20 20 19 19 19 18 17 15 14 13 14 11 12 11 11 8 8 9 9 7 10 8 5 4 7 8 8 9 8 8 8 9 8 7 6 5 6 6 5 5
21 22 21 21 19 20 19 17 16 15 16 14 17 15 13 11 10 9 6 6 8 8 8 10 5 4 6 7 8 8 8 9 8 9 8 7 6 5 6 5 6 9
19 20 21 21 20 19 19 19 17 18 16 13 13 13 13 10 8 10 7 4 5 6 9 9 7 4 6 7 7 6 7 7 8 9 9 7 6 7 6 6 9 9
19 20 21 22 21 18 18 19 17 16 16 15 12 12 13 11 9 10 10 7 3 2 4 7 6 3 3 6 6 5 6 8 6 9 8 4 6 5 9 11 8 10
Wind_Speed
7 6 7 7 6 5 7 7 6 6 5 5 6 5 5 4 4 6 6 6 6 7 6 6 7 8 7 8 8 8 7 8 7 7 8 8 8 9 8 8 8 6
8 8 6 7 6 5 5 6 6 6 6 5 5 6 5 5 5 6 7 7 6 7 6 7 7 8 8 8 8 8 7 7 8 5 8 9 7 7 8 8 8 6
9 9 9 9 8 8 7 6 7 6 6 5 6 5 5 4 6 6 6 6 7 6 6 6 7 7 8 8 8 8 8 8 8 6 7 8 7 7 7 6 6 7
8 9 9 9 9 9 7 8 7 6 6 7 6 5 5 5 6 7 6 6 7 6 6 6 7 7 8 8 8 7 7 7 6 7 7 6 5 6 6 5 5 5
9 9 8 8 8 8 8 8 8 6 6 7 6 5 6 6 7 6 6 6 6 6 6 7 7 7 7 7 8 7 6 6 6 7 7 7 5 5 4 5 6 6
7 8 8 9 9 9 8 8 7 7 7 8 6 5 6 6 6 6 6 6 5 6 7 6 7 6 7 7 7 7 7 7 6 7 7 7 5 4 4 4 5 6
9 8 9 8 8 8 9 8 7 6 7 7 6 6 6 6 6 6 6 6 6 6 7 7 7 6 5 6 7 7 6 7 7 7 7 5 5 5 4 4 4 5
9 7 8 8 9 8 9 8 7 7 8 7 8 5 5 7 7 5 5 6 7 7 7 7 7 6 6 6 7 7 6 5 6 6 6 5 5 5 4 3 3 5
9 8 9 10 10 8 9 7 7 7 6 9 7 6 5 5 6 6 6 6 7 6 7 7 6 6 5 7 7 7 7 6 6 6 6 6 5 5 4 3 4 4
9 9 10 10 10 8 10 8 7 7 7 8 7 6 7 5 5 6 6 6 7 6 6 7 6 6 5 6 7 7 7 7 5 5 5 5 5 5 4 3 3 4
10 9 10 10 10 9 10 9 8 8 6 7 8 7 6 6 5 5 6 6 6 7 7 6 6 6 7 6 5 5 7 6 6 5 5 5 4 4 3 4 2 2
9 9 10 11 11 10 11 10 9 8 8 6 7 9 7 6 6 4 5 6 6 6 6 6 5 5 6 6 6 5 5 5 5 5 4 4 4 3 4 3 2 1
9 9 9 10 10 10 9 9 9 8 9 8 6 7 7 7 6 6 4 6 5 5 5 6 6 5 6 5 5 5 6 6 5 5 4 3 3 3 3 3 2 1
9 9 9 10 9 10 9 9 8 8 8 7 7 8 7 7 7 7 5 5 5 5 4 4 5 5 5 5 5 5 6 6 5 5 4 4 4 3 2 3 3 2
9 9 9 10 10 10 9 9 8 8 8 7 7 7 5 6 6 6 7 6 5 5 5 4 5 5 4 5 6 4 5 6 5 5 4 4 3 3 1 2 3 3
9 9 10 10 11 11 10 9 8 8 8 8 8 7 6 6 6 5 6 7 6 5 5 4 4 2 3 6 5 6 6 5 4 4 5 4 4 3 1 2 4 4
10 10 10 11 10 10 10 9 8 8 9 8 8 7 7 6 5 6 6 5 6 6 6 5 3 2 4 7 8 8 6 5 6 5 4 5 4 4 4 3 4 4
10 11 10 10 10 10 10 8 9 10 9 8 8 8 6 5 6 6 6 5 5 6 6 5 4 3 6 8 8 8 6 6 5 5 4 4 4 4 4 4 4 3
11 11 11 11 11 11 10 9 10 9 8 8 8 6 6 6 6 6 5 5 6 7 6 4 4 4 7 9 9 8 8 6 5 5 4 3 2 3 4 4 3 2
11 12 12 11 11 11 10 10 10 9 9 7 7 6 7 6 6 6 5 5 5 7 6 4 4 4 7 8 8 8 8 6 5 5 4 3 3 2 3 2 2 2
12 12 12 11 11 10 10 10 9 9 9 8 7 8 8 7 7 7 5 5 5 6 6 5 3 4 7 8 8 8 8 6 5 5 4 4 4 4 4 4 3 1
13 12 12 11 11 11 10 10 9 10 9 7 6 6 5 5 4 5 6 6 5 5 6 5 3 4 6 7 8 8 8 5 5 5 5 4 4 3 3 2 2 1
12 12 13 12 12 11 11 11 10 9 8 7 8 7 7 6 6 5 5 6 6 5 6 5 3 3 5 7 7 8 6 5 5 5 4 4 4 2 2 2 2 2
13 13 13 12 11 11 11 10 9 8 9 7 9 8 7 7 6 5 4 4 6 6 5 6 4 3 5 6 7 7 6 5 4 5 5 4 3 2 3 2 2 3
12 12 12 12 12 11 11 11 10 10 8 7 7 7 7 6 5 6 5 3 4 4 6 6 4 3 5 6 6 5 5 4 4 5 5 4 3 4 3 2 2 1
11 12 12 13 13 11 10 11 9 9 9 8 7 7 7 6 6 6 7 5 3 2 2 5 4 2 2 6 6 5 5 4 3 5 5 3 3 3 5 5 5 5
Wind_Direction
127 128 128 124 122 122 123 119 111 109 103 103 106 102 93 85 73 81 78 76 74 78 77 81 86 87 85 85 86 85 84 86 84 88 88 87 86 87 83 78 69 68
126 123 115 115 112 104 105 110 113 112 107 100 104 105 85 86 65 79 82 80 72 73 79 83 86 93 95 95 94 94 90 89 89 88 93 88 88 86 82 79 76 70
129 127 129 130 128 122 116 107 107 107 107 108 103 96 98 86 86 74 76 83 82 76 76 84 88 92 97 98 96 94 95 96 93 87 89 91 88 84 82 77 74 71
127 129 128 125 125 124 120 115 110 110 115 108 102 104 100 92 87 82 74 78 86 81 81 83 91 93 98 100 99 94 95 91 98 99 93 86 82 87 81 80 75 69
130 126 125 122 121 121 120 121 123 121 112 110 105 101 100 98 93 89 89 79 86 89 85 86 88 96 101 102 104 104 100 100 96 98 97 92 86 87 81 80 76 72
116 122 127 131 133 129 126 126 124 122 119 109 111 102 100 98 96 97 96 97 87 94 90 89 92 96 105 108 105 106 113 104 100 99 95 92 85 72 82 80 82 73
129 129 129 127 124 122 120 120 122 113 107 114 105 98 108 100 98 97 97 98 97 86 92 97 106 107 112 114 110 110 105 107 103 100 101 102 98 85 73 85 82 79
128 128 128 125 120 122 121 122 120 118 121 112 104 93 98 107 100 99 95 98 97 93 90 95 101 113 124 121 118 115 109 109 111 105 107 110 106 103 89 74 81 73
132 133 131 125 123 123 123 120 118 118 118 116 112 106 87 91 103 102 98 97 96 94 99 96 106 117 128 125 126 126 124 121 123 126 128 128 122 126 119 115 70 54
137 134 129 128 126 128 126 123 121 118 115 112 113 110 105 90 88 101 98 102 101 97 98 109 113 118 122 130 138 136 134 134 135 133 134 140 142 143 133 118 121 58
139 137 134 132 130 131 129 128 125 120 118 117 116 105 103 108 93 93 103 103 110 115 113 117 128 132 127 130 133 141 138 138 140 140 146 154 157 151 140 136 147 88
139 138 137 136 134 134 134 133 130 126 121 112 116 113 107 104 111 106 112 111 108 115 116 120 124 129 130 139 142 137 128 126 133 137 150 159 155 132 126 158 175 240
146 143 139 137 136 135 134 131 129 129 123 121 116 117 120 119 112 111 108 113 115 118 122 125 121 117 123 130 138 140 139 135 130 130 126 126 74 101 129 184 216 233
145 140 139 136 135 135 135 132 127 122 118 117 118 119 121 126 130 125 122 108 116 116 120 119 114 112 114 123 132 146 140 138 142 144 155 84 76 66 130 205 234 267
142 142 138 137 136 134 133 131 124 120 119 121 120 117 113 117 119 122 121 107 97 106 105 102 110 120 143 144 133 130 134 135 143 140 114 104 93 82 68 278 274 279
144 142 143 140 139 140 137 131 125 125 126 125 122 119 120 120 119 117 117 122 117 105 98 95 93 108 146 160 155 143 134 124 118 131 138 132 129 127 121 279 262 269
144 146 144 145 143 136 134 128 126 128 125 124 123 126 129 131 125 121 119 119 120 119 107 97 91 111 135 127 126 128 126 126 128 122 123 134 159 175 184 228 252 281
149 147 143 139 137 137 137 134 133 131 129 130 130 130 128 119 121 123 122 123 115 109 105 108 104 117 124 115 117 117 115 118 116 120 116 120 154 186 203 197 228 277
150 147 142 142 146 147 143 140 137 131 129 133 135 136 126 127 132 125 126 133 124 117 111 114 119 125 121 114 111 109 108 106 99 104 110 112 125 181 193 201 204 7
151 148 150 151 147 143 142 142 140 137 138 137 127 126 129 127 130 130 135 138 134 124 124 130 126 134 122 114 113 112 111 105 108 104 100 94 85 108 131 112 88 95
153 151 147 149 150 146 144 142 137 133 137 142 141 144 145 149 150 144 149 142 135 129 127 127 138 142 127 117 115 113 111 108 102 95 89 78 73 76 95 102 112 143
155 154 149 147 146 147 143 141 140 143 141 139 128 123 120 123 131 135 142 144 148 136 124 126 152 156 133 122 114 109 102 90 97 94 90 84 64 58 50 61 95 27
155 150 152 154 152 151 148 146 144 142 137 138 131 138 142 152 162 161 155 147 147 147 130 134 142 153 130 118 112 108 95 93 99 92 84 76 49 9 17 12 350 283
158 155 154 153 152 153 150 147 143 139 144 150 146 149 155 163 157 138 148 156 145 147 148 134 146 142 118 106 100 95 104 111 108 102 83 55 12 356 351 357 308 341
154 156 155 152 154 156 151 148 151 153 151 146 148 148 153 152 143 138 141 140 148 153 153 136 143 115 94 90 96 102 106 109 110 103 87 49 29 356 327 351 331 319
158 158 160 159 156 153 155 151 147 143 151 152 156 153 148 155 147 149 152 164 164 185 160 152 144 136 87 97 97 116 127 121 130 98 95 74 28 35 360 349 351 340